Orbital Elements at Epoch 2459200.5 (2020-Dec-17.0) TDB
Reference: JPL 20 (heliocentric ecliptic J2000)
Element | Value | Uncertainty (1-sigma) | Units |
e | .1058998516679265 | 4.8015e-08 | |
a | 2.51565320591325 | 9.7334e-09 | au |
q | 2.249245904559093 | 1.2079e-07 | au |
i | 1.032806615014388 | 3.3273e-06 | deg |
node | 84.74658932099287 | 0.00030793 | deg |
peri | 64.69653754341918 | 0.00030857 | deg |
M | 90.24759225187927 | 2.0048e-05 | deg |
tp | 2458835.151181417063 (2019-Dec-17.65118142) | 8.0799e-05 | TDB |
period | 1457.385969065766 3.99 | 8.4582e-06 2.316e-08 | d yr |
n | .2470176107368265 | 1.4336e-09 | deg/d |
Q | 2.782060507267407 | 1.0764e-08 | au |
|
| | Orbit Determination Parameters
Additional Information
|